Other Public Products
Issued by NWS Grand Forks, ND

Home | Current Version | Previous Version | Text Only | Print | Product List | Glossary On
Versions: 1 2 3 4 5 6 7 8 9 10 11 12 13 14 15 16 17 18 19 20 21 22 23 24 25 26 27 28 29 30 31 32 33 34 35 36 37 38 39 40 41 42 43 44 45 46 47 48 49 50
000
FPUS83 KFGF 191331
OPUFGF
PRAIRIE TO PINES WEATHER ROUNDUP
NATIONAL WEATHER SERVICE EASTERN NORTH DAKOTA/GRAND FORKS ND
700 AM CST TUE FEB 19 2019

 **SATELLITE DATA USED TO AUGMENT SKY COVER AT AUTOMATED STATIONS**
 *****  WEATHER ACROSS EASTERN NORTH DAKOTA  *****

CITY           SKY/WX    TMP DP  RH WIND       PRES   REMARKS
GRAND FORKS    FAIR     -12 -16  82 S9        30.44F WCI -30
GRND FORKS AFB FAIR     -12 -17  76 S8        30.42F WCI -28
GRND FORKS NWS   N/A    -10 -12  91 S12       30.40F WCI -30
BUXTON           N/A    -12 -15  87 SE7         N/A  WCI -27
DEVILS LAKE    FLURRIES  -8 -11  86 SW9       30.34F WCI -25
FARGO          FAIR      -9 -13  83 S10       30.49F WCI -27
WAHPETON ARPT  FAIR     -15 -22  70 CALM      30.49F
$$

 *****  WEATHER ACROSS CENTRAL AND WESTERN NORTH DAKOTA  *****

CITY           SKY/WX    TMP DP  RH WIND       PRES   REMARKS
JAMESTOWN      FAIR     -14 -19  79 S5        30.36F WCI -26
BISMARCK       FAIR     -21 -26  77 E3        30.35F
MINOT          FAIR      -9 -15  75 SW10      30.25F WCI -27
MINOT AFB      FAIR     -14 -20  76 SW8       30.24F WCI -32
GARRISON         N/A    -14 -18  82 CALM      30.26F
WILLISTON      FAIR     -16 -23  70 CALM      30.21F
DICKINSON      FAIR     -16 -20  82 S7        30.15F WCI -32
HETTINGER      FAIR     -15 -20  78 S3        30.21S
$$

 *****  OTHER OBSERVATIONS NORTHEAST NORTH DAKOTA  *****

CITY           SKY/WX    TMP DP  RH WIND       PRES   REMARKS
WALHALLA         N/A     -9  -9 100 CALM      30.36F
LANGDON        FAIR     -13 -17  84 SW13      30.28F WCI -34
CAVALIER       FAIR     -15 -20  76 S6        30.38F WCI -29
GRAFTON        FAIR     -15 -18  84 S3        30.43F
CANDO          FAIR     -18 -24  76 SW3       30.32F
FORT TOTTEN      N/A     -8 -14  74 S5        29.95S WCI -19
ROLLA          FAIR     -11 -17  77 SW8       30.24S WCI -28
RUGBY          FAIR     -13 -17  84 S8        30.28F WCI -30
 ***** THE ABOVE OBSERVATIONS ARE NON NWS ARE NOT QUALITY
        CONTROLLED AND MAY MIS-REPORT RAIN FOR SNOW...
$$

 *****  OTHER OBSERVATIONS SOUTHEAST NORTH DAKOTA *****

CITY           SKY/WX    TMP DP  RH WIND       PRES   REMARKS
COOPERSTOWN    FAIR     -13 -18  77 S7        30.38F WCI -29
VALLEY CITY      N/A    N/A N/A N/A MISG        N/A
OAKES          HAZE     -18 -24  76 S9        30.43R VSB 1   WCI -38
GWINNER          N/A    -17 -20  83 CALM      30.43F
SHEYENNE NWR     N/A    -20 -27  69 SE2       29.95S
BUFFALO          N/A     -6 -10  81 NE7         N/A  WCI -20
WYNDMERE       NOT AVBL
 ***** THE ABOVE OBSERVATIONS ARE NON NWS ARE NOT QUALITY
       CONTROLLED AND MAY MIS-REPORT RAIN FOR SNOW...
$$

  *****  WEATHER ACROSS NORTHERN MINNESOTA  *****

CITY           SKY/WX    TMP DP  RH WIND       PRES   REMARKS
FLAG ISLAND    FAIR     -20 -26  76 SE8       30.38F WCI -39
WARROAD        FAIR     -11 -17  77 S3        30.40F
ROSEAU         FAIR     -13 -17  84 S8        30.41F WCI -30
HALLOCK        FAIR     -15 -18  84 S8        30.40F WCI -32
THF RVR FALLS  FLURRIES -13 -17  82 S10       30.43F WCI -32
HALSTAD          N/A    -15 -20  77 S9          N/A  WCI -34
FOSSTON        FAIR     -17 -20  83 S7        30.43F WCI -33
BAUDETTE       FAIR     -13 -18  78 S3        30.41F
WASKISH        FAIR     -15 -18  84 CALM      30.42F
CROOKSTON      FAIR     -11 -17  77 S8        30.47S WCI -28
$$
  *****  WEATHER ACROSS CENTRAL AND WEST MINNESOTA  *****

CITY           SKY/WX    TMP DP  RH WIND       PRES   REMARKS
BEMIDJI        FAIR     -19 -25  76 CALM      30.42F
PARK RAPIDS    FAIR     -17 -21  82 CALM      30.43F
WADENA         FAIR     -18 -22  83 CALM      30.45F
DETROIT LAKES  FAIR     -13 -17  84 CALM      30.45F
MOORHEAD       FAIR     -15 -18  84 SE3       30.48F
FERGUS FALLS   FAIR      -9 -13  84 CALM      30.49F
ELBOW LAKE     FAIR      -9 -12  83 E5        30.48S WCI -20
MORRIS MN      FAIR     -13 -18  77 S3        30.48R
STAPLES        FAIR     -17 -22  76 CALM      30.46F
WHEATON        FAIR      -9 -15  77 SE7       30.51R WCI -24
$$
  *****  WEATHER ELSEWHERE ACROSS MINNESOTA  *****

CITY           SKY/WX    TMP DP  RH WIND       PRES   REMARKS
DULUTH         FAIR      -5 -10  79 CALM      30.44R
INTRNTL FALLS  FAIR     -15 -20  78 SW3       30.44F
ELY            FAIR     -22 -31  63 CALM      30.42S
CLOQUET        FAIR      -9 -15  77 W3        30.46S
BRAINERD       FAIR     -16 -24  67 CALM      30.48F
HIBBING        FAIR     -21 -24  86 CALM      30.44S
ALEXANDRIA     FAIR      -5 -13  68 CALM      30.46F
SAINT CLOUD    FAIR     -14 -18  82 CALM      30.53R
MINNEAPOLIS    FAIR      -2  -5  87 SW5       30.56F WCI -12
$$

  *****  WEATHER ACROSS SOUTH DAKOTA  *****

CITY           SKY/WX    TMP DP  RH WIND       PRES   REMARKS
SIOUX FALLS    FAIR      -9 -14  78 CALM      30.46F
BROOKINGS      FOG       -9 -15  77 SE6         N/A  VSB 1/4 WCI -23
WATERTOWN      CLOUDY    -9 -12  87 S7        30.40S FOG     WCI -24
HURON          CLOUDY   -12 -16  82 SE5       30.46F WCI -24
SISSETON         N/A    -12 -16  82 S3        30.46S
ABERDEEN       CLOUDY   -13 -18  78 S6        30.46R HAZE    WCI -27
MITCHELL       MOCLDY    -7 -11  83 SE6       30.47F WCI -20
PIERRE         CLOUDY    -6 -10  83 E5        30.35F FOG     WCI -17
MOBRIDGE       HAZE     -13 -18  78 SE6       30.34R VSB 1   WCI -27
RAPID CITY     CLOUDY     2  -3  80 CALM      30.12F
$$

  *****  SOME WEATHER IN NEARBY STATES *****

CITY           SKY/WX    TMP DP  RH WIND       PRES   REMARKS
GLASGOW MT     FAIR     -13 -20  71 SE13      30.09F WCI -34
GREAT FALLS MT FAIR      -2  -6  83 S13       29.88F WCI -20
CHEYENNE WY    LGT SNOW   8   6  92 S13       29.84S FOG     WCI  -8
SCOTTSBLUFF NE LGT SNOW  12  10  92 SE12      30.05F FOG     WCI  -2
OMAHA NE       FAIR      -3  -7  82 NW5       30.54S FOG     WCI -13
DES MOINES IA  FLURRIES   1  -2  87 N3        30.57R
DAVENPORT IA   HAZE       2  -3  80 CALM      30.62S VSB 1/4
CHICAGO IL     CLOUDY    14  10  84 SW3       30.61R
EAU CLAIRE WI  FOG       -7 -11  83 S3        30.56R VSB 3/4
LA CROSSE WI   FAIR      -6 -11  79 S3        30.61S
$$

  *****  SOME NATIONAL WEATHER *****

CITY           SKY/WX    TMP DP  RH WIND       PRES   REMARKS
LA GUARDIA NY  FAIR      25  11  55 NW18G25   30.53R WCI  11
RALEIGH NC     PTSUNNY   35  26  69 NE5       30.55R
ATLANTA GA     CLOUDY    46  34  62 NE14      30.42R
NEW ORLEANS LA CLOUDY    60  46  59 E12       30.12R
OKLAHOMA CITY  CLOUDY    30  20  66 NE14      30.22F WCI  19
ALBUQUERQUE NM FLURRIES  22   9  57 E21G28    29.85R WCI   6
SALT LAKE CITY CLOUDY    23  20  88 NW8       29.99R WCI  14
LOS ANGELES CA FAIR      46  24  42 N7        30.10R
BOISE ID       MOCLDY    18  10  71 S3        30.13S
SEATTLE WA     LGT RAIN  39  35  86 S3        30.25F
$$

*** WEATHER ACROSS MANITOBA...SASKATCHEWAN AND ONTARIO ***
                ***ONTARIO***

CITY           SKY/WX    TMP DP  RH WIND       PRES   REMARKS
GERALDTON      PTCLDY   -29 -36  68 CALM      30.41S
THUNDER BAY    PTCLDY   -13 -18  77 W5        30.50S WCI -25
SIOUX LOOKOUT  FLURRIES -15 -18  84 S5        30.35F WCI -27
TORONTO        FLURRIES  14   5  67 SW5       30.60R WCI   6
BIG TROUT LK   PTCLDY   -13 -18  77 SW6       30.25F WCI -27
PICKLE LAKE    PTCLDY   -17 -24  70 S9        30.29F WCI -36
DRYDEN         PTCLDY   -13 -17  84 SW7       30.35F WCI -29
KENORA         PTCLDY   -13 -18  77 S7        30.34F WCI -29
$$
                *** MANITOBA***

CITY           SKY/WX    TMP DP  RH WIND       PRES   REMARKS
BRANDON        CLEAR    -17 -24  70 SW9       30.24F WCI -36
DAUPHIN        CLEAR     -4  -9  77 SW7       30.18F WCI -18
ISLAND LAKE    PTCLDY    -8 -15  71 S6        30.14F WCI -21
PILOT MOUND      N/A    -17 -22  76 S7          N/A  WCI -33
THE PAS        MOCLDY    -8 -13  77 S9        29.98F WCI -25
THOMPSON       MOCLDY    -4 -11  71 S10       29.92F WCI -21
WINNIPEG       CLEAR    -11 -17  77 S13       30.35F WCI -32
LYNN LAKE      CLOUDY    -2  -8  78 SW9       29.73F WCI -18
CHURCHILL      CRYSTALS -18 -24  76 S8        29.96F WCI -37
GILLAM         FLURRIES  -4 -11  71 S12G18    29.99F WCI -22
$$
                ***SASKATCHEWAN***

CITY           SKY/WX    TMP DP  RH WIND       PRES   REMARKS
ESTEVAN        LGT SNOW -11 -17  77 SW13G18   30.14F WCI -32
KINDERSLEY     CLEAR    -13 -18  77 S18       29.87F WCI -38
LLOYDMINSTER   CLEAR    -11 -17  77 SW9       29.74F WCI -29
PRINCE ALBERT  CRYSTALS -15 -20  76 SW9       29.94F WCI -33
REGINA         PTCLDY   -15 -20  76 S13       30.06F WCI -37
YORKTON        CLEAR    -15 -20  76 S8        30.09F WC


USA.gov is the U.S. government's official web portal to all federal, state and local government web resources and services.